Weather History for KSNC - January, 2013

Change the Weather History Date:

Wednesday, January 16, 2013

  Actual Average (KHVN) Record (KHVN)
Temperature  
Mean Temperature 34 °F -  
Max Temperature 35 °F 32 °F 54 °F (1989)
Min Temperature 32 °F 20 °F -2 °F (2004)
Degree Days  
Heating Degree Days 32    
Moisture  
Dew Point 33 °F    
Average Humidity 99    
Maximum Humidity 100    
Minimum Humidity 70    
Precipitation  
Precipitation 5.84 in - - ()
Sea Level Pressure  
Sea Level Pressure 29.96 in    
Wind  
Wind Speed 4 mph (North)    
Max Wind Speed 10 mph    
Max Gust Speed -    
Visibility 3 miles    
Events Fog , Rain , Snow    
Averages and records for this station are not official NWS values.
T = Trace of Precipitation, MM = Missing Value Source: NWS Daily Summary

Daily Weather History Graph

Daily Weather History Graph

Search for Another Location

Airport or City:

Trip Planner

Search our weather history database for the weather conditions in past years. The results will help you decide how hot, cold, wet, or windy it might be!

Date:

Astronomy

Jan. 16, 2013 Rise Set
Actual Time 7:13 AM EST 4:46 PM EST
Civil Twilight 6:42 AM EST 5:17 PM EST
Nautical Twilight 6:08 AM EST 5:51 PM EST
Astronomical Twilight 5:35 AM EST 6:24 PM EST
Moon 9:44 AM EST (1/16) 10:40 PM EST (1/16)
Length of Visible Light 10h 34m
Length of Day
9h 33m
Waxing Crescent, 28% of the Moon is Illuminated
Jan 16
Waxing Crescent
Jan 18
First Quarter
Jan 26
Full
Feb 3
Last Quarter
Feb 10
New

Hourly Weather History & Observations

Time (EST) Temp. Windchill Dew Point Humidity Pressure Visibility Wind Dir Wind Speed Gust Speed Precip Events Conditions
12:15 AM 35.6 °F 31.7 °F 26.6 °F 70% 30.22 in 7.0 mi North 4.6 mph - N/A   Partly Cloudy
12:35 AM 33.8 °F 30.8 °F 28.4 °F 81% 30.21 in 7.0 mi NE 3.5 mph - N/A Rain Light Rain
12:55 AM 33.8 °F 30.8 °F 28.4 °F 81% 30.21 in 4.0 mi NE 3.5 mph - 0.01 in   Mostly Cloudy
1:15 AM 32.0 °F 28.7 °F 30.2 °F 93% 30.20 in 2.0 mi ENE 3.5 mph - 0.09 in Snow Light Snow
1:35 AM 32.0 °F - 32.0 °F 100% 30.19 in 2.0 mi Calm Calm - 0.27 in Snow Light Snow
1:55 AM 32.0 °F - 32.0 °F 100% 30.18 in 2.5 mi Calm Calm - 0.37 in Snow Light Snow
2:15 AM 32.0 °F 28.7 °F 32.0 °F 100% 30.17 in 1.8 mi NNE 3.5 mph - 0.17 in Snow Light Snow
2:35 AM 32.0 °F 27.5 °F 32.0 °F 100% 30.16 in 1.5 mi North 4.6 mph - 0.54 in Snow Light Snow
3:15 AM 32.0 °F 27.5 °F 32.0 °F 100% 30.15 in 1.5 mi NNE 4.6 mph - 0.12 in Snow Light Snow
3:35 AM 32.0 °F 27.5 °F 32.0 °F 100% 30.13 in 1.5 mi NE 4.6 mph - 0.33 in Snow Snow
3:55 AM 32.0 °F 26.4 °F 32.0 °F 100% 30.12 in 1.0 mi NE 5.8 mph - 0.86 in Snow Snow
4:15 AM 32.0 °F 27.5 °F 32.0 °F 100% 30.10 in 0.8 mi NE 4.6 mph - 0.74 in Snow Heavy Snow
4:35 AM 32.0 °F 26.4 °F 32.0 °F 100% 30.09 in 0.8 mi NE 5.8 mph - 2.28 in Snow Snow
4:55 AM 32.0 °F 27.5 °F 32.0 °F 100% 30.09 in 2.0 mi NE 4.6 mph - 2.81 in Snow Light Snow
5:15 AM 32.0 °F 28.7 °F 32.0 °F 100% 30.09 in 1.0 mi ENE 3.5 mph - 0.52 in   Overcast
5:35 AM 32.0 °F 28.7 °F 32.0 °F 100% 30.08 in 1.2 mi East 3.5 mph - 0.93 in Snow Light Snow
5:55 AM 32.0 °F 27.5 °F 32.0 °F 100% 30.07 in 2.5 mi East 4.6 mph - 1.01 in Rain Rain
6:15 AM 32.0 °F 28.7 °F 32.0 °F 100% 30.06 in 2.5 mi East 3.5 mph - 0.02 in Rain Rain
6:35 AM 32.0 °F 27.5 °F 32.0 °F 100% 30.06 in 2.5 mi ENE 4.6 mph - 0.05 in Rain Rain
6:55 AM 32.0 °F 28.7 °F 32.0 °F 100% 30.06 in 1.8 mi ENE 3.5 mph - 0.09 in Rain Light Rain
7:35 AM 33.8 °F 28.6 °F 33.8 °F 100% 30.06 in 2.0 mi North 5.8 mph - 0.03 in Rain Rain
7:55 AM 33.8 °F 30.8 °F 33.8 °F 100% 30.05 in 3.0 mi NNE 3.5 mph - 0.05 in   Overcast
8:15 AM 33.8 °F 29.6 °F 33.8 °F 100% 30.03 in 2.0 mi NNE 4.6 mph - N/A   Overcast
8:35 AM 33.8 °F 30.8 °F 33.8 °F 100% 30.00 in 1.8 mi NE 3.5 mph - N/A   Overcast
8:55 AM 33.8 °F 29.6 °F 33.8 °F 100% 29.96 in 1.2 mi ENE 4.6 mph - N/A   Overcast
9:15 AM 33.8 °F 29.6 °F 33.8 °F 100% 29.96 in 1.8 mi NNE 4.6 mph - N/A   Overcast
9:35 AM 33.8 °F 30.8 °F 33.8 °F 100% 29.93 in 1.8 mi ENE 3.5 mph - N/A   Overcast
10:15 AM 33.8 °F 30.8 °F 33.8 °F 100% 29.93 in 1.0 mi North 3.5 mph - N/A   Overcast
10:35 AM 33.8 °F - 33.8 °F 100% 29.93 in 1.0 mi Calm Calm - N/A   Overcast
10:55 AM 33.8 °F 27.7 °F 33.8 °F 100% 29.93 in 0.8 mi North 6.9 mph - N/A Rain Rain
11:15 AM 33.8 °F 28.6 °F 33.8 °F 100% 29.92 in 1.0 mi North 5.8 mph - 0.01 in Rain Light Rain
11:35 AM 33.8 °F 27.7 °F 33.8 °F 100% 29.92 in 2.5 mi North 6.9 mph - 0.03 in Rain Light Rain
11:55 AM 33.8 °F 29.6 °F 33.8 °F 100% 29.90 in 1.0 mi North 4.6 mph - 0.07 in Rain Rain
12:15 PM 33.8 °F 28.6 °F 33.8 °F 100% 29.90 in 2.5 mi North 5.8 mph - 0.01 in Rain Light Rain
12:35 PM 33.8 °F 30.8 °F 33.8 °F 100% 29.87 in 3.0 mi NE 3.5 mph - 0.03 in   Overcast
12:55 PM 33.8 °F 27.7 °F 33.8 °F 100% 29.86 in 1.5 mi NNW 6.9 mph - 0.03 in   Overcast
1:15 PM 33.8 °F 29.6 °F 33.8 °F 100% 29.79 in 2.0 mi ESE 4.6 mph - N/A   Overcast
1:35 PM 33.8 °F 28.6 °F 33.8 °F 100% 29.79 in 1.5 mi NNE 5.8 mph - N/A   Overcast
1:55 PM 33.8 °F 27.0 °F 33.8 °F 100% 29.82 in 2.5 mi NNW 8.1 mph - N/A   Overcast
2:35 PM 33.8 °F 26.4 °F 33.8 °F 100% 29.87 in 1.2 mi NNW 9.2 mph - N/A   Overcast
2:55 PM 33.8 °F - 33.8 °F 100% 29.83 in 1.5 mi Calm Calm - N/A   Overcast
3:15 PM 33.8 °F - 33.8 °F 100% 29.85 in 1.8 mi Calm Calm - N/A   Overcast
3:35 PM 33.8 °F 27.7 °F 33.8 °F 100% 29.86 in 4.0 mi NNW 6.9 mph - N/A   Overcast
3:55 PM 33.8 °F 25.8 °F 33.8 °F 100% 29.87 in 5.0 mi NNW 10.4 mph - N/A   Overcast
4:15 PM 32.0 °F 26.4 °F 32.0 °F 100% 29.86 in 2.5 mi NNW 5.8 mph - N/A   Overcast
4:35 PM 32.0 °F 28.7 °F 32.0 °F 100% 29.85 in 3.0 mi North 3.5 mph - N/A   Overcast
4:55 PM 33.8 °F - 33.8 °F 100% 29.86 in 3.0 mi Calm Calm - N/A   Overcast
5:15 PM 33.8 °F - 33.8 °F 100% 29.87 in 2.5 mi Calm Calm - N/A   Overcast
5:35 PM 33.8 °F - 33.8 °F 100% 29.86 in 2.5 mi Calm Calm - N/A   Overcast
5:55 PM 33.8 °F 30.8 °F 33.8 °F 100% 29.88 in 3.0 mi WSW 3.5 mph - N/A   Overcast
6:15 PM 33.8 °F - 33.8 °F 100% 29.86 in 3.0 mi Calm Calm - N/A   Overcast
6:35 PM 33.8 °F 30.8 °F 33.8 °F 100% 29.86 in 2.5 mi WSW 3.5 mph - N/A   Overcast
6:55 PM 33.8 °F 28.6 °F 33.8 °F 100% 29.86 in 1.0 mi WSW 5.8 mph - N/A   Overcast
7:35 PM 33.8 °F 27.7 °F 33.8 °F 100% 29.86 in 0.2 mi West 6.9 mph - N/A Fog Fog
7:55 PM 33.8 °F 27.7 °F 33.8 °F 100% 29.86 in 0.5 mi West 6.9 mph - N/A Fog Fog
8:15 PM 33.8 °F 27.0 °F 33.8 °F 100% 29.87 in 2.0 mi West 8.1 mph - N/A   Overcast
8:35 PM 33.8 °F 27.0 °F 33.8 °F 100% 29.87 in 5.0 mi West 8.1 mph - N/A   Overcast
8:55 PM 33.8 °F 27.0 °F 33.8 °F 100% 29.86 in 6.0 mi WSW 8.1 mph - N/A   Overcast
9:15 PM 33.8 °F 27.0 °F 33.8 °F 100% 29.86 in 7.0 mi West 8.1 mph - N/A   Overcast
9:35 PM 33.8 °F 27.7 °F 33.8 °F 100% 29.86 in 5.0 mi West 6.9 mph - N/A   Overcast
9:55 PM 33.8 °F 27.7 °F 33.8 °F 100% 29.87 in 7.0 mi West 6.9 mph - N/A   Overcast
10:15 PM 33.8 °F 28.6 °F 33.8 °F 100% 29.86 in 6.0 mi West 5.8 mph - N/A   Overcast
10:35 PM 33.8 °F 28.6 °F 33.8 °F 100% 29.86 in 6.0 mi West 5.8 mph - N/A   Mostly Cloudy
10:55 PM 33.8 °F 28.6 °F 33.8 °F 100% 29.86 in 5.0 mi West 5.8 mph - N/A   Mostly Cloudy
11:15 PM 33.8 °F 27.7 °F 33.8 °F 100% 29.86 in 5.0 mi West 6.9 mph - N/A   Scattered Clouds
11:35 PM 33.8 °F 26.4 °F 33.8 °F 100% 29.87 in 4.0 mi West 9.2 mph - N/A   Partly Cloudy
11:55 PM 33.8 °F 27.0 °F 33.8 °F 100% 29.87 in 5.0 mi West 8.1 mph - N/A   Scattered Clouds